Location: Austin
(30.3000°N, 97.7500°W)
Time: 11:09:56
(UTC-05:00)

JB-3 - Pass Details

Date: 03 April 2024
Orbit: 509 x 567 km, 97.2° (Epoch: 22 April)

Event Time Altitude Azimuth Distance (km) Brightness Sun altitude
Rises 06:40:59 0° 166° (SSE) 2,732 7.9 -8.5°
Reaches altitude 10° 06:43:08 10° 165° (SSE) 1,833 7.0 -8.1°
Maximum altitude 06:47:06 82° 78° (ENE) 560 4.5 -7.2°
Drops below altitude 10° 06:51:01 10° 351° (N) 1,811 7.0 -6.4°
Sets 06:53:07 0° 351° (N) 2,696 7.9 -6.0°
